Location: Unspecified
(0.0000°N, 0.0000°E)
Time: 12:09:36
(UTC+00:00)

Courier 1B Rocket - Pass Details

Date: 18 December 2018
Orbit: 920 x 1202 km, 28.2° (Epoch: 15 July)

Event Time Altitude Azimuth Distance (km) Brightness Sun altitude
Rises 06:56:45 0° 286° (WNW) 3,543 7.3 13.8°
Reaches altitude 10° 07:01:15 10° 315° (NW) 2,612 6.7 14.8°
Maximum altitude 07:03:37 12° 338° (NNW) 2,469 6.8 15.4°
Drops below altitude 10° 07:06:02 10° 1° (N) 2,645 7.1 15.9°
Sets 07:10:40 0° 30° (NNE) 3,642 8.1 17.0°
